User: anonymous   Login
Location: Gradaro
(45.0833°N, 10.8833°E)
Time: 06:31:14
(UTC+00:00)
Language:

CZ-4B R/B - Orbit

View from above orbital plane
View from above orbital plane
View from above satellite
View from above satellite

Ground track
Ground track

The orbit data is extracted from the following two-line orbital elements,

1 33410U 08053C   21057.82321820  .00000141  00000-0  15184-4 0  9997
2 33410  97.8827  52.8223 0119519 346.3793  13.4212 14.99398846673108
Epoch (UTC): 26 February 2021 19:45:26
Eccentricity: 0.0119519
inclination: 97.8827°
perigee height: 486 km
apogee height: 652 km
right ascension of ascending node: 52.8223°
argument of perigee: 346.3793°
revolutions per day: 14.99398846
mean anomaly at epoch: 13.4212°
orbit number at epoch: 67310

The dashed part of the orbit path shows where the satellite is in the earth's shadow,  

DLR